22-09-2023, 00:00:08,    236,    0.0,    8.7,   0.00,   0.00,  995.7,    0.1, -999.0
22-09-2023, 00:00:18,    236,    0.0,    8.6,   0.00,   0.00,  995.7,    0.3, -999.0
22-09-2023, 00:00:28,    236,    0.0,    8.6,   0.00,   0.00,  995.7,    0.2, -999.0
22-09-2023, 00:00:38,    236,    0.0,    8.6,   0.00,   0.00,  995.7,    0.2, -999.0
22-09-2023, 00:00:48,    236,    0.0,    8.6,   0.00,   0.00,  995.7,    0.4, -999.0
22-09-2023, 00:00:58,    236,    0.0,    8.6,   0.00,   0.00,  995.7,    0.3, -999.0
22-09-2023, 00:01:08,    236,    0.0,    8.6,   0.00,   0.00,  995.7,    0.3, -999.0
22-09-2023, 00:01:20,    236,    0.0,    8.6,   0.00,   0.00,  995.7,    0.2, -999.0
22-09-2023, 00:01:28,    236,    0.0,    8.5,   0.00,   0.00,  995.7,    0.2, -999.0
22-09-2023, 00:01:38,    236,    0.0,    8.6,   0.00,   0.00,  995.7,    0.2, -999.0
22-09-2023, 00:01:48,    235,    0.0,    8.6,   0.00,   0.00,  995.7,    0.3, -999.0
22-09-2023, 00:01:58,    236,    0.0,    8.6,   0.00,   0.00,  995.7,    0.3, -999.0
22-09-2023, 00:02:08,    236,    0.0,    8.6,   0.00,   0.00,  995.7,    0.3, -999.0
22-09-2023, 00:02:18,    235,    0.0,    8.7,   0.00,   0.00,  995.7,    0.3, -999.0
22-09-2023, 00:02:28,    236,    0.0,    8.6,   0.00,   0.00,  995.7,    0.3, -999.0
22-09-2023, 00:02:38,    236,    0.0,    8.6,   0.00,   0.00,  995.7,    0.2, -999.0
22-09-2023, 00:02:48,    236,    0.0,    8.6,   0.00,   0.00,  995.7,    0.6, -999.0
22-09-2023, 00:02:58,    236,    0.0,    8.5,   0.00,   0.00,  995.7,    0.3, -999.0
22-09-2023, 00:03:08,    236,    0.0,    8.5,   0.00,   0.00,  995.7,    0.4, -999.0
22-09-2023, 00:03:18,    236,    0.0,    8.6,   0.00,   0.00,  995.7,    0.1, -999.0
22-09-2023, 00:03:28,    236,    0.0,    8.6,   0.00,   0.00,  995.7,    0.2, -999.0
22-09-2023, 00:03:38,    236,    0.0,    8.5,   0.00,   0.00,  995.7,    0.4, -999.0
22-09-2023, 00:03:48,    236,    0.0,    8.5,   0.00,   0.00,  995.7,    0.4, -999.0
22-09-2023, 00:03:58,    236,    0.0,    8.6,   0.00,   0.00,  995.7,    0.2, -999.0
22-09-2023, 00:04:08,    236,    0.0,    8.6,   0.00,   0.00,  995.7,    0.3, -999.0
22-09-2023, 00:04:18,    236,    0.0,    8.6,   0.00,   0.00,  995.7,    0.4, -999.0
22-09-2023, 00:04:28,    236,    0.0,    8.6,   0.00,   0.00,  995.7,    0.2, -999.0
22-09-2023, 00:04:37,    236,    0.0,    8.6,   0.00,   0.00,  995.7,    0.4, -999.0
22-09-2023, 00:04:48,    236,    0.0,    8.6,   0.00,   0.00,  995.7,    0.3, -999.0
22-09-2023, 00:04:58,    236,    0.0,    8.6,   0.00,   0.00,  995.7,    0.4, -999.0
22-09-2023, 00:05:07,    236,    0.0,    8.6,   0.00,   0.00,  995.7,    0.3, -999.0
22-09-2023, 00:05:17,    236,    0.0,    8.5,   0.00,   0.00,  995.7,    0.2, -999.0
22-09-2023, 00:05:28,    236,    0.0,    8.6,   0.00,   0.00,  995.7,    0.4, -999.0
22-09-2023, 00:05:37,    236,    0.0,    8.5,   0.00,   0.00,  995.7,    0.3, -999.0
22-09-2023, 00:05:47,    237,    0.0,    8.6,   0.00,   0.00,  995.7,    0.4, -999.0
22-09-2023, 00:05:57,    236,    0.0,    8.6,   0.00,   0.00,  995.7,    0.4, -999.0
22-09-2023, 00:06:08,    236,    0.0,    8.6,   0.00,   0.00,  995.7,    0.3, -999.0
22-09-2023, 00:06:17,    236,    0.0,    8.6,   0.00,   0.00,  995.7,    0.4, -999.0
22-09-2023, 00:06:27,    236,    0.0,    8.5,   0.00,   0.00,  995.7,    0.2, -999.0
22-09-2023, 00:06:37,    236,    0.0,    8.6,   0.00,   0.00,  995.7,    0.4, -999.0
22-09-2023, 00:06:47,    236,    0.0,    8.6,   0.00,   0.00,  995.7,    0.1, -999.0
22-09-2023, 00:06:57,    236,    0.0,    8.6,   0.00,   0.00,  995.7,    0.3, -999.0
22-09-2023, 00:07:07,    236,    0.0,    8.6,   0.00,   0.00,  995.7,    0.4, -999.0
22-09-2023, 00:07:17,    236,    0.0,    8.6,   0.00,   0.00,  995.7,    0.3, -999.0
22-09-2023, 00:07:27,    236,    0.0,    8.6,   0.00,   0.00,  995.7,    0.2, -999.0
22-09-2023, 00:07:37,    236,    0.0,    8.6,   0.00,   0.00,  995.7,    0.4, -999.0
22-09-2023, 00:07:47,    236,    0.0,    8.5,   0.00,   0.00,  995.7,    0.2, -999.0
22-09-2023, 00:07:57,    236,    0.0,    8.5,   0.00,   0.00,  995.7,    0.2, -999.0
22-09-2023, 00:08:07,    236,    0.0,    8.4,   0.00,   0.00,  995.7,    0.3, -999.0
22-09-2023, 00:08:17,    236,    0.0,    8.6,   0.00,   0.00,  995.7,    0.5, -999.0
22-09-2023, 00:08:27,    236,    0.0,    8.5,   0.00,   0.00,  995.7,    0.4, -999.0
22-09-2023, 00:08:37,    236,    0.0,    8.5,   0.00,   0.00,  995.7,    0.3, -999.0
22-09-2023, 00:08:47,    237,    0.0,    8.5,   0.00,   0.00,  995.7,    0.2, -999.0
22-09-2023, 00:08:57,    236,    0.0,    8.5,   0.00,   0.00,  995.7,    0.3, -999.0
22-09-2023, 00:09:07,    236,    0.0,    8.5,   0.00,   0.00,  995.7,    0.3, -999.0
22-09-2023, 00:09:17,    236,    0.0,    8.5,   0.00,   0.00,  995.7,    0.4, -999.0
22-09-2023, 00:09:27,    236,    0.0,    8.4,   0.00,   0.00,  995.7,    0.3, -999.0
22-09-2023, 00:09:37,    236,    0.0,    8.5,   0.00,   0.00,  995.7,    0.4, -999.0
22-09-2023, 00:09:47,    236,    0.0,    8.5,   0.00,   0.00,  995.7,    0.2, -999.0
22-09-2023, 00:09:57,    236,    0.0,    8.4,   0.00,   0.00,  995.7,    0.2, -999.0
22-09-2023, 00:10:07,    236,    0.0,    8.5,   0.00,   0.00,  995.7,    0.4, -999.0
22-09-2023, 00:10:17,    236,    0.0,    8.5,   0.00,   0.00,  995.7,    0.4, -999.0
22-09-2023, 00:10:27,    236,    0.0,    8.5,   0.00,   0.00,  995.7,    0.4, -999.0
22-09-2023, 00:10:37,    236,    0.0,    8.4,   0.00,   0.00,  995.7,    0.3, -999.0
22-09-2023, 00:10:47,    236,    0.0,    8.4,   0.00,   0.00,  995.8,    0.2, -999.0
22-09-2023, 00:10:57,    236,    0.0,    8.5,   0.00,   0.00,  995.7,    0.3, -999.0
22-09-2023, 00:11:07,    236,    0.0,    8.5,   0.00,   0.00,  995.7,    0.4, -999.0
22-09-2023, 00:11:17,    236,    0.0,    8.6,   0.00,   0.00,  995.8,    0.2, -999.0
22-09-2023, 00:11:27,    237,    0.0,    8.6,   0.00,   0.00,  995.8,    0.5, -999.0
22-09-2023, 00:11:36,    236,    0.0,    8.5,   0.00,   0.00,  995.8,    0.4, -999.0
22-09-2023, 00:11:47,    236,    0.0,    8.5,   0.00,   0.00,  995.8,    0.4, -999.0
22-09-2023, 00:11:57,    236,    0.0,    8.6,   0.00,   0.00,  995.8,    0.3, -999.0
22-09-2023, 00:12:07,    237,    0.0,    8.5,   0.00,   0.00,  995.7,    0.4, -999.0
22-09-2023, 00:12:16,    237,    0.0,    8.5,   0.00,   0.00,  995.8,    0.3, -999.0
22-09-2023, 00:12:27,    236,    0.0,    8.5,   0.00,   0.00,  995.7,    0.3, -999.0
22-09-2023, 00:12:37,    236,    0.0,    8.5,   0.00,   0.00,  995.7,    0.2, -999.0
22-09-2023, 00:12:46,    236,    0.0,    8.5,   0.00,   0.00,  995.7,    0.4, -999.0
22-09-2023, 00:12:56,    236,    0.0,    8.5,   0.00,   0.00,  995.7,    0.4, -999.0
22-09-2023, 00:13:07,    236,    0.0,    8.5,   0.00,   0.00,  995.8,    0.2, -999.0
22-09-2023, 00:13:16,    236,    0.0,    8.5,   0.00,   0.00,  995.8,    0.4, -999.0
22-09-2023, 00:13:26,    237,    0.0,    8.5,   0.00,   0.00,  995.8,    0.3, -999.0
22-09-2023, 00:13:36,    235,    0.0,    8.5,   0.00,   0.00,  995.8,    0.2, -999.0
22-09-2023, 00:13:46,    236,    0.0,    8.5,   0.00,   0.00,  995.8,    0.4, -999.0
22-09-2023, 00:13:56,    236,    0.0,    8.5,   0.00,   0.00,  995.8,    0.3, -999.0
22-09-2023, 00:14:06,    236,    0.0,    8.4,   0.00,   0.00,  995.8,    0.4, -999.0
22-09-2023, 00:14:16,    236,    0.0,    8.4,   0.00,   0.00,  995.8,    0.2, -999.0
22-09-2023, 00:14:26,    236,    0.0,    8.4,   0.00,   0.00,  995.8,    0.4, -999.0
22-09-2023, 00:14:36,    236,    0.0,    8.5,   0.00,   0.00,  995.8,    0.2, -999.0
22-09-2023, 00:14:46,    236,    0.0,    8.4,   0.00,   0.00,  995.7,    0.3, -999.0
22-09-2023, 00:14:56,    236,    0.0,    8.4,   0.00,   0.00,  995.8,    0.4, -999.0
22-09-2023, 00:15:06,    238,    0.0,    8.4,   0.00,   0.00,  995.7,    0.3, -999.0
22-09-2023, 00:15:16,    236,    0.0,    8.4,   0.00,   0.00,  995.7,    0.5, -999.0
22-09-2023, 00:15:26,    236,    0.0,    8.4,   0.00,   0.00,  995.7,    0.4, -999.0
22-09-2023, 00:15:36,    236,    0.0,    8.5,   0.00,   0.00,  995.7,    0.2, -999.0
22-09-2023, 00:15:46,    236,    0.0,    8.5,   0.00,   0.00,  995.7,    0.3, -999.0
22-09-2023, 00:15:56,    236,    0.0,    8.5,   0.00,   0.00,  995.7,    0.4, -999.0
22-09-2023, 00:16:06,    236,    0.0,    8.5,   0.00,   0.00,  995.7,    0.3, -999.0
22-09-2023, 00:16:16,    236,    0.0,    8.5,   0.00,   0.00,  995.7,    0.3, -999.0
22-09-2023, 00:16:26,    236,    0.0,    8.5,   0.00,   0.00,  995.7,    0.5, -999.0
22-09-2023, 00:16:36,    236,    0.0,    8.5,   0.00,   0.00,  995.7,    0.4, -999.0
22-09-2023, 00:16:46,    236,    0.0,    8.4,   0.00,   0.00,  995.8,    0.3, -999.0
22-09-2023, 00:16:56,    236,    0.0,    8.3,   0.00,   0.00,  995.7,    0.3, -999.0
22-09-2023, 00:17:06,    236,    0.0,    8.5,   0.00,   0.00,  995.7,    0.4, -999.0
22-09-2023, 00:17:16,    236,    0.0,    8.5,   0.00,   0.00,  995.7,    0.5, -999.0
22-09-2023, 00:17:26,    235,    0.0,    8.5,   0.00,   0.00,  995.8,    0.1, -999.0
22-09-2023, 00:17:36,    237,    0.0,    8.5,   0.00,   0.00,  995.7,    0.4, -999.0
22-09-2023, 00:17:46,    236,    0.0,    8.6,   0.00,   0.00,  995.7,    0.2, -999.0
22-09-2023, 00:17:56,    236,    0.0,    8.5,   0.00,   0.00,  995.7,    0.3, -999.0
22-09-2023, 00:18:06,    236,    0.0,    8.5,   0.00,   0.00,  995.7,    0.4, -999.0
22-09-2023, 00:18:16,    236,    0.0,    8.5,   0.00,   0.00,  995.7,    0.2, -999.0
22-09-2023, 00:18:26,    236,    0.0,    8.5,   0.00,   0.00,  995.7,    0.3, -999.0
22-09-2023, 00:18:36,    236,    0.0,    8.5,   0.00,   0.00,  995.8,    0.3, -999.0
22-09-2023, 00:18:45,    236,    0.0,    8.5,   0.00,   0.00,  995.7,    0.5, -999.0
22-09-2023, 00:18:56,    236,    0.0,    8.5,   0.00,   0.00,  995.7,    0.3, -999.0
22-09-2023, 00:19:06,    236,    0.0,    8.5,   0.00,   0.00,  995.7,    0.2, -999.0
22-09-2023, 00:19:16,    236,    0.0,    8.4,   0.00,   0.00,  995.7,    0.1, -999.0
22-09-2023, 00:19:25,    237,    0.0,    8.4,   0.00,   0.00,  995.8,    0.4, -999.0
22-09-2023, 00:19:36,    237,    0.0,    8.4,   0.00,   0.00,  995.8,    0.4, -999.0
22-09-2023, 00:19:46,    236,    0.0,    8.4,   0.00,   0.00,  995.8,    0.1, -999.0
22-09-2023, 00:19:55,    237,    0.0,    8.3,   0.00,   0.00,  995.7,    0.6, -999.0
22-09-2023, 00:20:05,    237,    0.0,    8.4,   0.00,   0.00,  995.8,    0.0, -999.0
22-09-2023, 00:20:16,    236,    0.0,    8.5,   0.00,   0.00,  995.8,    0.6, -999.0
22-09-2023, 00:20:25,    236,    0.0,    8.4,   0.00,   0.00,  995.7,    0.4, -999.0
22-09-2023, 00:20:35,    237,    0.0,    8.6,   0.00,   0.00,  995.7,    0.0, -999.0
22-09-2023, 00:20:45,    236,    0.0,    8.5,   0.00,   0.00,  995.8,    0.1, -999.0
22-09-2023, 00:20:56,    237,    0.0,    8.4,   0.00,   0.00,  995.8,    0.6, -999.0
22-09-2023, 00:21:05,    236,    0.0,    8.5,   0.00,   0.00,  995.8,    0.7, -999.0
22-09-2023, 00:21:15,    237,    0.0,    8.5,   0.00,   0.00,  995.8,    0.5, -999.0
22-09-2023, 00:21:25,    237,    0.0,    8.5,   0.00,   0.00,  995.8,    0.4, -999.0
22-09-2023, 00:21:35,    237,    0.0,    8.4,   0.00,   0.00,  995.8,    0.3, -999.0
22-09-2023, 00:21:45,    237,    0.0,    8.4,   0.00,   0.00,  995.8,    0.2, -999.0
22-09-2023, 00:21:55,    237,    0.0,    8.4,   0.00,   0.00,  995.8,    0.2, -999.0
22-09-2023, 00:22:05,    237,    0.0,    8.5,   0.00,   0.00,  995.8,    0.2, -999.0
22-09-2023, 00:22:15,    237,    0.0,    8.4,   0.00,   0.00,  995.8,    0.3, -999.0
22-09-2023, 00:22:25,    237,    0.0,    8.4,   0.00,   0.00,  995.8,    0.3, -999.0
22-09-2023, 00:22:35,    237,    0.0,    8.5,   0.00,   0.00,  995.8,    0.2, -999.0
22-09-2023, 00:22:45,    253,    0.0,    8.4,   0.00,   0.00,  995.8,    0.3, -999.0
22-09-2023, 00:22:55,    262,    0.0,    8.4,   0.00,   0.00,  995.8,    0.8, -999.0
22-09-2023, 00:23:05,    263,    0.0,    8.5,   0.00,   0.00,  995.8,    0.2, -999.0
22-09-2023, 00:23:15,    263,    0.0,    8.4,   0.00,   0.00,  995.8,    0.4, -999.0
22-09-2023, 00:23:25,    264,    0.0,    8.4,   0.00,   0.00,  995.8,    0.2, -999.0
22-09-2023, 00:23:35,    263,    0.0,    8.5,   0.00,   0.00,  995.8,    0.3, -999.0
22-09-2023, 00:23:45,    264,    0.0,    8.4,   0.00,   0.00,  995.8,    0.4, -999.0
22-09-2023, 00:23:55,    263,    0.0,    8.4,   0.00,   0.00,  995.8,    0.3, -999.0
22-09-2023, 00:24:05,    264,    0.0,    8.4,   0.00,   0.00,  995.8,    0.2, -999.0
22-09-2023, 00:24:15,    264,    0.0,    8.4,   0.00,   0.00,  995.8,    0.4, -999.0
22-09-2023, 00:24:25,    264,    0.0,    8.4,   0.00,   0.00,  995.8,    0.4, -999.0
22-09-2023, 00:24:35,    264,    0.0,    8.4,   0.00,   0.00,  995.8,    0.2, -999.0
22-09-2023, 00:24:45,    264,    0.0,    8.4,   0.00,   0.00,  995.8,    0.4, -999.0
22-09-2023, 00:24:55,    264,    0.0,    8.5,   0.00,   0.00,  995.8,    0.4, -999.0
22-09-2023, 00:25:05,    264,    0.0,    8.4,   0.00,   0.00,  995.9,    0.1, -999.0
22-09-2023, 00:25:15,    264,    0.0,    8.4,   0.00,   0.00,  995.8,    0.2, -999.0
22-09-2023, 00:25:25,    264,    0.0,    8.4,   0.00,   0.00,  995.8,    0.5, -999.0
22-09-2023, 00:25:35,    264,    0.0,    8.4,   0.00,   0.00,  995.8,    0.4, -999.0
22-09-2023, 00:25:45,    264,    0.0,    8.4,   0.00,   0.00,  995.8,    0.3, -999.0
22-09-2023, 00:25:54,    264,    0.0,    8.6,   0.00,   0.00,  995.8,    0.4, -999.0
22-09-2023, 00:26:05,    265,    0.0,    8.4,   0.00,   0.00,  995.8,    0.8, -999.0
22-09-2023, 00:26:15,    264,    0.0,    8.4,   0.00,   0.00,  995.8,    0.1, -999.0
22-09-2023, 00:26:24,    264,    0.0,    8.4,   0.00,   0.00,  995.8,    0.3, -999.0
22-09-2023, 00:26:34,    264,    0.0,    8.4,   0.00,   0.00,  995.9,    0.3, -999.0
22-09-2023, 00:26:45,    266,    0.0,    8.4,   0.00,   0.00,  995.8,    0.4, -999.0
22-09-2023, 00:26:54,    264,    0.0,    8.4,   0.00,   0.00,  995.8,    0.3, -999.0
22-09-2023, 00:27:04,    264,    0.0,    8.5,   0.00,   0.00,  995.8,    0.4, -999.0
22-09-2023, 00:27:14,    264,    0.0,    8.4,   0.00,   0.00,  995.8,    0.3, -999.0
22-09-2023, 00:27:25,    265,    0.0,    8.5,   0.00,   0.00,  995.8,    0.3, -999.0
22-09-2023, 00:27:34,    264,    0.0,    8.5,   0.00,   0.00,  995.8,    0.3, -999.0
22-09-2023, 00:27:44,    264,    0.0,    8.3,   0.00,   0.00,  995.8,    0.3, -999.0
22-09-2023, 00:27:54,    264,    0.0,    8.4,   0.00,   0.00,  995.8,    0.4, -999.0
22-09-2023, 00:28:04,    264,    0.0,    8.5,   0.00,   0.00,  995.8,    0.2, -999.0
22-09-2023, 00:28:14,    267,    0.0,    8.5,   0.00,   0.00,  995.8,    0.2, -999.0
22-09-2023, 00:28:24,    264,    0.0,    8.5,   0.00,   0.00,  995.8,    0.4, -999.0
22-09-2023, 00:28:34,    264,    0.0,    8.4,   0.00,   0.00,  995.8,    0.4, -999.0
22-09-2023, 00:28:44,    264,    0.0,    8.5,   0.00,   0.00,  995.8,    0.3, -999.0
22-09-2023, 00:28:54,    264,    0.0,    8.5,   0.00,   0.00,  995.8,    0.5, -999.0
22-09-2023, 00:29:04,    264,    0.0,    8.5,   0.00,   0.00,  995.8,    0.5, -999.0
22-09-2023, 00:29:14,    264,    0.0,    8.5,   0.00,   0.00,  995.8,    0.3, -999.0
22-09-2023, 00:29:24,    264,    0.0,    8.5,   0.00,   0.00,  995.8,    0.5, -999.0
22-09-2023, 00:29:34,    264,    0.0,    8.5,   0.00,   0.00,  995.8,    0.2, -999.0
22-09-2023, 00:29:44,    264,    0.0,    8.5,   0.00,   0.00,  995.8,    0.2, -999.0
22-09-2023, 00:29:54,    264,    0.0,    8.5,   0.00,   0.00,  995.8,    0.4, -999.0
22-09-2023, 00:30:04,    264,    0.0,    8.5,   0.00,   0.00,  995.8,    0.1, -999.0
22-09-2023, 00:30:14,    264,    0.0,    8.5,   0.00,   0.00,  995.8,    0.3, -999.0
22-09-2023, 00:30:24,    264,    0.0,    8.5,   0.00,   0.00,  995.8,    0.4, -999.0
22-09-2023, 00:30:34,    265,    0.0,    8.5,   0.00,   0.00,  995.8,    0.2, -999.0
22-09-2023, 00:30:44,    264,    0.0,    8.5,   0.00,   0.00,  995.8,    0.2, -999.0
22-09-2023, 00:30:54,    265,    0.0,    8.4,   0.00,   0.00,  995.8,    0.4, -999.0
22-09-2023, 00:31:04,    264,    0.0,    8.4,   0.00,   0.00,  995.8,    0.2, -999.0
22-09-2023, 00:31:14,    264,    0.0,    8.5,   0.00,   0.00,  995.9,    0.3, -999.0
22-09-2023, 00:31:24,    264,    0.0,    8.5,   0.00,   0.00,  995.8,    0.2, -999.0
22-09-2023, 00:31:34,    264,    0.0,    8.5,   0.00,   0.00,  995.8,    0.3, -999.0
22-09-2023, 00:31:44,    264,    0.0,    8.5,   0.00,   0.00,  995.8,    0.3, -999.0
22-09-2023, 00:31:54,    264,    0.0,    8.5,   0.00,   0.00,  995.8,    0.4, -999.0
22-09-2023, 00:32:04,    264,    0.0,    8.6,   0.00,   0.00,  995.8,    0.3, -999.0
22-09-2023, 00:32:14,    264,    0.0,    8.5,   0.00,   0.00,  995.8,    0.3, -999.0
22-09-2023, 00:32:23,    264,    0.0,    8.4,   0.00,   0.00,  995.8,    0.6, -999.0
22-09-2023, 00:32:34,    264,    0.0,    8.6,   0.00,   0.00,  995.9,    0.1, -999.0
22-09-2023, 00:32:44,    264,    0.0,    8.5,   0.00,   0.00,  995.9,    0.4, -999.0
22-09-2023, 00:32:54,    265,    0.0,    8.5,   0.00,   0.00,  995.8,    0.1, -999.0
22-09-2023, 00:33:03,    264,    0.0,    8.5,   0.00,   0.00,  995.8,    0.1, -999.0
22-09-2023, 00:33:14,    264,    0.0,    8.4,   0.00,   0.00,  995.8,    0.3, -999.0
22-09-2023, 00:33:24,    265,    0.0,    8.5,   0.00,   0.00,  995.8,    0.3, -999.0
22-09-2023, 00:33:33,    264,    0.0,    8.5,   0.00,   0.00,  995.8,    0.4, -999.0
22-09-2023, 00:33:43,    264,    0.0,    8.4,   0.00,   0.00,  995.8,    0.2, -999.0
22-09-2023, 00:33:54,    264,    0.0,    8.5,   0.00,   0.00,  995.8,    0.3, -999.0
22-09-2023, 00:34:03,    264,    0.0,    8.4,   0.00,   0.00,  995.8,    0.4, -999.0
22-09-2023, 00:34:13,    264,    0.0,    8.4,   0.00,   0.00,  995.8,    0.3, -999.0
22-09-2023, 00:34:23,    264,    0.0,    8.5,   0.00,   0.00,  995.8,    0.3, -999.0
22-09-2023, 00:34:34,    264,    0.0,    8.5,   0.00,   0.00,  995.8,    0.5, -999.0
22-09-2023, 00:34:43,    264,    0.0,    8.5,   0.00,   0.00,  995.8,    0.3, -999.0
22-09-2023, 00:34:53,    264,    0.0,    8.5,   0.00,   0.00,  995.8,    0.1, -999.0
22-09-2023, 00:35:03,    264,    0.0,    8.6,   0.00,   0.00,  995.9,    0.5, -999.0
22-09-2023, 00:35:13,    264,    0.0,    8.5,   0.00,   0.00,  995.8,    0.4, -999.0
22-09-2023, 00:35:23,    264,    0.0,    8.5,   0.00,   0.00,  995.8,    0.3, -999.0
22-09-2023, 00:35:33,    264,    0.0,    8.5,   0.00,   0.00,  995.8,    0.2, -999.0
22-09-2023, 00:35:43,    265,    0.0,    8.5,   0.00,   0.00,  995.8,    0.7, -999.0
22-09-2023, 00:35:53,    265,    0.0,    8.5,   0.00,   0.00,  995.8,    0.3, -999.0
22-09-2023, 00:36:03,    265,    0.0,    8.5,   0.00,   0.00,  995.8,    0.5, -999.0
22-09-2023, 00:36:13,    264,    0.0,    8.5,   0.00,   0.00,  995.8,    0.1, -999.0
22-09-2023, 00:36:23,    264,    0.0,    8.5,   0.00,   0.00,  995.8,    0.2, -999.0
22-09-2023, 00:36:33,    264,    0.0,    8.5,   0.00,   0.00,  995.8,    0.2, -999.0
22-09-2023, 00:36:43,    265,    0.0,    8.5,   0.00,   0.00,  995.8,    0.2, -999.0
22-09-2023, 00:36:53,    264,    0.0,    8.5,   0.00,   0.00,  995.8,    0.4, -999.0
22-09-2023, 00:37:03,    264,    0.0,    8.5,   0.00,   0.00,  995.8,    0.3, -999.0
22-09-2023, 00:37:13,    264,    0.0,    8.5,   0.00,   0.00,  995.8,    0.3, -999.0
22-09-2023, 00:37:23,    264,    0.0,    8.4,   0.00,   0.00,  995.8,    0.3, -999.0
22-09-2023, 00:37:33,    264,    0.0,    8.4,   0.00,   0.00,  995.8,    0.4, -999.0
22-09-2023, 00:37:43,    264,    0.0,    8.5,   0.00,   0.00,  995.8,    0.5, -999.0
22-09-2023, 00:37:53,    264,    0.0,    8.5,   0.00,   0.00,  995.8,    0.3, -999.0
22-09-2023, 00:38:03,    264,    0.0,    8.5,   0.00,   0.00,  995.8,    0.2, -999.0
22-09-2023, 00:38:13,    265,    0.0,    8.5,   0.00,   0.00,  995.8,    0.3, -999.0
22-09-2023, 00:38:23,    264,    0.0,    8.5,   0.00,   0.00,  995.8,    0.3, -999.0
22-09-2023, 00:38:33,    264,    0.0,    8.4,   0.00,   0.00,  995.8,    0.3, -999.0
22-09-2023, 00:38:43,    266,    0.1,    8.4,   0.00,   0.00,  995.9,    0.5, -999.0
22-09-2023, 00:38:53,    265,    0.0,    8.4,   0.00,   0.00,  995.9,    0.3, -999.0
22-09-2023, 00:39:03,    265,    0.2,    8.5,   0.00,   0.00,  995.9,    0.4, -999.0
22-09-2023, 00:39:13,    265,    0.0,    8.4,   0.00,   0.00,  995.8,    0.3, -999.0
22-09-2023, 00:39:23,    265,    0.0,    8.4,   0.00,   0.00,  995.8,    0.3, -999.0
22-09-2023, 00:39:32,    265,    0.0,    8.4,   0.00,   0.00,  995.8,    0.3, -999.0
22-09-2023, 00:39:43,    265,    0.0,    8.4,   0.00,   0.00,  995.8,    0.6, -999.0
22-09-2023, 00:39:53,    264,    0.0,    8.4,   0.00,   0.00,  995.8,    0.3, -999.0
22-09-2023, 00:40:02,    265,    0.0,    8.4,   0.00,   0.00,  995.8,    0.2, -999.0
22-09-2023, 00:40:12,    264,    0.0,    8.4,   0.00,   0.00,  995.8,    0.2, -999.0
22-09-2023, 00:40:23,    265,    1.1,    8.5,   0.00,   0.00,  995.9,    0.5, -999.0
22-09-2023, 00:40:32,    264,    0.4,    8.5,   0.00,   0.00,  995.9,    0.1, -999.0
22-09-2023, 00:40:42,    264,    0.0,    8.4,   0.00,   0.00,  995.8,    0.3, -999.0
22-09-2023, 00:40:53,    264,    0.0,    8.3,   0.00,   0.00,  995.8,    0.2, -999.0
22-09-2023, 00:41:03,    264,    0.0,    8.3,   0.00,   0.00,  995.8,    0.3, -999.0
22-09-2023, 00:41:12,    264,    0.0,    8.3,   0.00,   0.00,  995.8,    0.2, -999.0
22-09-2023, 00:41:22,    264,    0.0,    8.4,   0.00,   0.00,  995.8,    0.5, -999.0
22-09-2023, 00:41:33,    264,    0.0,    8.3,   0.00,   0.00,  995.8,    0.4, -999.0
22-09-2023, 00:41:42,    264,    0.0,    8.4,   0.00,   0.00,  995.8,    0.4, -999.0
22-09-2023, 00:41:52,    264,    0.0,    8.4,   0.00,   0.00,  995.8,    0.4, -999.0
22-09-2023, 00:42:02,    264,    0.0,    8.4,   0.00,   0.00,  995.9,    0.3, -999.0
22-09-2023, 00:42:12,    264,    0.0,    8.5,   0.00,   0.00,  995.8,    0.4, -999.0
22-09-2023, 00:42:22,    264,    0.0,    8.4,   0.00,   0.00,  995.8,    0.4, -999.0
22-09-2023, 00:42:32,    264,    0.0,    8.4,   0.00,   0.00,  995.8,    0.2, -999.0
22-09-2023, 00:42:42,    265,    0.0,    8.3,   0.00,   0.00,  995.9,    0.6, -999.0
22-09-2023, 00:42:52,    264,    0.3,    8.5,   0.00,   0.00,  996.0,    0.5, -999.0
22-09-2023, 00:43:02,    264,    0.2,    8.6,   0.00,   0.00,  995.9,    0.5, -999.0
22-09-2023, 00:43:12,    264,    0.0,    8.4,   0.00,   0.00,  995.9,    0.4, -999.0
22-09-2023, 00:43:22,    264,    0.0,    8.4,   0.00,   0.00,  995.9,    0.4, -999.0
22-09-2023, 00:43:32,    264,    0.0,    8.4,   0.00,   0.00,  995.8,    0.3, -999.0
22-09-2023, 00:43:42,    264,    0.0,    8.4,   0.00,   0.00,  995.9,    0.3, -999.0
22-09-2023, 00:43:52,    264,    0.0,    8.4,   0.00,   0.00,  995.8,    0.4, -999.0
22-09-2023, 00:44:02,    264,    0.0,    8.4,   0.00,   0.00,  995.9,    0.3, -999.0
22-09-2023, 00:44:12,    264,    0.0,    8.4,   0.00,   0.00,  995.9,    0.2, -999.0
22-09-2023, 00:44:22,    262,    0.0,    8.4,   0.00,   0.00,  995.9,    0.3, -999.0
22-09-2023, 00:44:32,    264,    0.0,    8.4,   0.00,   0.00,  995.8,    0.4, -999.0
22-09-2023, 00:44:42,    264,    0.0,    8.4,   0.00,   0.00,  995.8,    0.2, -999.0
22-09-2023, 00:44:52,    264,    0.0,    8.4,   0.00,   0.00,  995.9,    0.3, -999.0
22-09-2023, 00:45:02,    264,    0.0,    8.3,   0.00,   0.00,  995.9,    0.2, -999.0
22-09-2023, 00:45:12,    264,    0.0,    8.3,   0.00,   0.00,  995.8,    0.2, -999.0
22-09-2023, 00:45:22,    264,    0.0,    8.4,   0.00,   0.00,  995.9,    0.3, -999.0
22-09-2023, 00:45:32,    264,    0.0,    8.4,   0.00,   0.00,  995.8,    0.4, -999.0
22-09-2023, 00:45:42,    264,    0.0,    8.4,   0.00,   0.00,  995.9,    0.2, -999.0
22-09-2023, 00:45:52,    264,    0.0,    8.4,   0.00,   0.00,  995.8,    0.3, -999.0
22-09-2023, 00:46:02,    264,    0.0,    8.4,   0.00,   0.00,  995.8,    0.4, -999.0
22-09-2023, 00:46:12,    264,    0.0,    8.4,   0.00,   0.00,  995.8,    0.4, -999.0
22-09-2023, 00:46:22,    264,    0.0,    8.5,   0.00,   0.00,  995.8,    0.3, -999.0
22-09-2023, 00:46:31,    264,    0.0,    8.5,   0.00,   0.00,  995.8,    0.4, -999.0
22-09-2023, 00:46:42,    264,    0.0,    8.5,   0.00,   0.00,  995.8,    0.4, -999.0
22-09-2023, 00:46:52,    264,    0.0,    8.5,   0.00,   0.00,  995.8,    0.2, -999.0